Weather History for Worland, WY

Change the Weather History Date:

Wednesday, January 9, 2013

  Actual Average Record
Temperature  
Mean Temperature 24 °F 16 °F  
Max Temperature 42 °F 30 °F 61 °F (1995)
Min Temperature 6 °F 3 °F -31 °F (1973)
Degree Days  
Heating Degree Days 41 49  
Month to date heating degree days 482 441  
Since 1 July heating degree days 3224 3804  
Cooling Degree Days 0 0  
Month to date cooling degree days 0 0  
Year to date cooling degree days 0 0  
Moisture  
Dew Point 17 °F    
Average Humidity 73    
Maximum Humidity 92    
Minimum Humidity 54    
Precipitation  
Precipitation 0.00 in 0.01 in 0.17 in (1993)
Month to date precipitation T 0.07  
Year to date precipitation T 0.07  
Sea Level Pressure  
Sea Level Pressure 30.14 in    
Wind  
Wind Speed 10 mph (South)    
Max Wind Speed 25 mph    
Max Gust Speed 30 mph    
Visibility 10 miles    
Events      
T = Trace of Precipitation, MM = Missing Value Source: NWS Daily Summary

Daily Weather History Graph

Daily Weather History Graph

Search for Another Location

Airport:

Trip Planner

Search our weather history database for the weather conditions in past years. The results will help you decide how hot, cold, wet, or windy it might be!

Date:

Astronomy

Jan. 09, 2013 Rise Set
Actual Time 7:45 AM MST 4:53 PM MST
Civil Twilight 7:13 AM MST 5:25 PM MST
Nautical Twilight 6:37 AM MST 6:01 PM MST
Astronomical Twilight 6:02 AM MST 6:36 PM MST
Moon 5:28 AM MST (1/9) 2:57 PM MST (1/9)
Length of Visible Light 10h 12m
Length of Day
9h 07m
Waning Crescent, 6% of the Moon is Illuminated
Jan 9
Waning Crescent
Jan 11
New
Jan 18
First Quarter
Jan 26
Full
Feb 3
Last Quarter

Hourly Weather History & Observations

Time (MST) Temp. Windchill Dew Point Humidity Pressure Visibility Wind Dir Wind Speed Gust Speed Precip Events Conditions
12:53 AM 10.9 °F 4.7 °F 8.1 °F 88% 30.29 in 10.0 mi ESE 3.5 mph - N/A   Clear
1:53 AM 8.1 °F -2.0 °F 5.0 °F 87% 30.31 in 10.0 mi West 5.8 mph - N/A   Clear
2:53 AM 10.9 °F 2.9 °F 8.1 °F 88% 30.27 in 10.0 mi South 4.6 mph - N/A   Clear
3:53 AM 10.0 °F 3.6 °F 6.1 °F 84% 30.27 in 10.0 mi West 3.5 mph - N/A   Clear
4:53 AM 9.0 °F - 6.1 °F 88% 30.29 in 10.0 mi Calm Calm - N/A   Clear
5:53 AM 8.1 °F - 5.0 °F 87% 30.27 in 10.0 mi Calm Calm - N/A   Clear
6:53 AM 10.0 °F - 6.1 °F 84% 30.28 in 10.0 mi Calm Calm - N/A   Clear
7:53 AM 9.0 °F 2.4 °F 5.0 °F 84% 30.30 in 10.0 mi East 3.5 mph - N/A   Clear
8:53 AM 10.9 °F 1.4 °F 7.0 °F 84% 30.32 in 10.0 mi SSW 5.8 mph - N/A   Clear
9:53 AM 18.0 °F 11.1 °F 12.9 °F 81% 30.30 in 10.0 mi WSW 4.6 mph - N/A   Clear
10:53 AM 24.1 °F 16.0 °F 16.0 °F 71% 30.25 in 10.0 mi SW 6.9 mph - N/A   Clear
11:53 AM 27.0 °F - 19.0 °F 72% 30.20 in 10.0 mi Calm Calm - N/A   Clear
12:53 PM 30.9 °F 26.2 °F 21.9 °F 69% 30.16 in 10.0 mi SSW 4.6 mph - N/A   Clear
1:53 PM 39.9 °F 31.4 °F 26.1 °F 58% 30.11 in 10.0 mi South 16.1 mph - N/A   Clear
2:53 PM 39.9 °F 30.8 °F 28.0 °F 63% 30.06 in 10.0 mi SSE 18.4 mph - N/A   Clear
3:53 PM 41.0 °F 32.2 °F 28.0 °F 60% 30.05 in 10.0 mi SSE 18.4 mph - N/A   Clear
4:53 PM 39.9 °F 29.5 °F 27.0 °F 60% 30.01 in 10.0 mi SSE 24.2 mph - N/A   Clear
5:53 PM 37.9 °F 28.2 °F 27.0 °F 65% 30.02 in 10.0 mi SSE 18.4 mph - N/A   Clear
6:53 PM 37.0 °F 29.3 °F 26.1 °F 65% 30.00 in 10.0 mi South 11.5 mph - N/A   Clear
7:53 PM 39.0 °F 28.5 °F 25.0 °F 57% 29.98 in 10.0 mi SSE 23.0 mph - N/A   Clear
8:53 PM 39.0 °F 30.3 °F 24.1 °F 55% 29.96 in 10.0 mi SSE 16.1 mph - N/A   Clear
9:53 PM 37.0 °F 25.9 °F 24.1 °F 59% 29.92 in 10.0 mi SSE 23.0 mph - N/A   Clear
10:53 PM 35.1 °F 24.5 °F 23.0 °F 61% 29.90 in 10.0 mi South 18.4 mph - N/A   Clear
11:53 PM 35.1 °F 25.5 °F 21.9 °F 59% 29.87 in 10.0 mi South 15.0 mph - N/A   Clear